FW8140 Weather Reports


time (UTC)temp
C
wind
direction
speed
KPH
gust
KPH
rain 1hr
cm
rain 24hr
cm
rain mn
cm
humidity
%
barometer
mb
20260505070101 17 0 0.0 0.0 0.00 0.00 0.00 95 1014.6
20260505064639 17 0 0.0 0.0 0.00 0.00 0.00 95 1015.0
20260505063058 17 0 0.0 0.0 0.00 0.00 0.00 95 1015.2
20260505061601 17 0 0.0 0.0 0.00 0.00 0.00 94 1015.2
20260505060101 17 0 0.0 0.0 0.00 0.00 0.00 94 1015.3
20260505054556 18 0 0.0 0.0 0.00 0.00 0.00 94 1015.4
20260505053056 18 0 0.0 0.0 0.00 0.00 0.00 94 1015.7
20260505051554 18 0 0.0 0.0 0.00 0.00 0.00 93 1015.5
20260505050104 18 0 0.0 0.0 0.00 0.00 0.00 93 1015.7
20260505041603 19 0 0.0 0.0 0.00 0.00 0.00 91 1015.9
20260505040103 19 0 0.0 0.0 0.00 0.00 0.00 90 1015.8
20260505034610 20 351 0.0 0.0 0.00 0.00 0.00 90 1015.9
20260505033100 20 0 0.0 0.0 0.00 0.00 0.00 89 1016.1
20260505031552 20 351 0.0 0.0 0.00 0.00 0.00 88 1016.0
20260505024609 20 0 0.0 0.0 0.00 0.00 0.00 87 1016.2
20260505023102 20 350 0.0 0.0 0.00 0.00 0.00 86 1016.0
20260505021600 21 0 0.0 1.6 0.00 0.00 0.00 85 1016.0
20260505020149 21 0 0.0 1.6 0.00 0.00 0.00 84 1015.9
20260505014553 21 0 0.0 3.2 0.00 0.00 0.00 84 1015.8
20260505013053 21 350 0.0 1.6 0.00 0.00 0.00 83 1015.7
20260505011559 22 274 0.0 3.2 0.00 0.00 0.00 82 1015.5
20260505010109 22 352 0.0 3.2 0.00 0.00 0.00 81 1015.5
20260505004605 22 0 0.0 6.4 0.00 0.00 0.00 80 1015.5
20260505003058 23 0 0.0 3.2 0.00 0.00 0.00 79 1015.1
20260505001550 23 304 0.0 6.4 0.00 0.00 0.00 78 1014.7
20260505000107 23 23 0.0 4.8 0.00 0.00 0.00 77 1014.8
20260504234553 24 9 0.0 3.2 0.00 0.00 0.00 76 1014.6
20260504233053 25 360 0.0 4.8 0.00 0.00 0.00 74 1014.3
20260504231619 25 0 0.0 3.2 0.00 0.00 0.00 72 1014.0
20260504230051 25 32 1.6 8.0 0.00 0.00 0.00 71 1014.2
20260504224550 26 11 1.6 6.4 0.00 0.00 0.00 70 1014.2
20260504223057 26 359 1.6 12.9 0.00 0.00 0.00 68 1014.1
20260504221631 27 279 1.6 6.4 0.00 0.00 0.00 67 1014.0
20260504220055 27 297 3.2 8.0 0.00 0.00 0.00 67 1014.0
20260504214555 27 248 1.6 8.0 0.00 0.00 0.00 66 1014.0
20260504213100 28 19 1.6 8.0 0.00 0.00 0.00 65 1013.8
20260504211550 28 34 1.6 8.0 0.00 0.00 0.00 64 1014.0
20260504210053 28 335 0.0 11.3 0.00 0.00 0.00 63 1014.1
20260504204555 29 341 3.2 11.3 0.00 0.00 0.00 61 1014.0
20260504203053 29 11 3.2 8.0 0.00 0.00 0.00 62 1013.9
20260504201551 29 1 1.6 6.4 0.00 0.00 0.00 61 1014.2
20260504200052 29 6 1.6 8.0 0.00 0.00 0.00 61 1014.4
20260504194556 29 12 1.6 9.7 0.00 0.00 0.00 61 1014.3
20260504193058 30 356 1.6 9.7 0.00 0.00 0.00 57 1014.5
20260504191623 31 322 1.6 8.0 0.00 0.00 0.00 55 1014.9
20260504184603 31 18 3.2 9.7 0.00 0.00 0.00 58 1015.3
20260504183054 30 65 3.2 9.7 0.00 0.00 0.00 59 1015.5
20260504181604 30 232 3.2 16.1 0.00 0.00 0.00 59 1015.6
20260504180053 29 45 1.6 14.5 0.00 0.00 0.00 63 1015.8
20260504174556 28 345 3.2 12.9 0.00 0.00 0.00 61 1015.9
20260504173055 28 14 1.6 9.7 0.00 0.00 0.00 64 1016.1
20260504171551 29 285 1.6 12.9 0.00 0.00 0.00 64 1016.3
20260504140105 24 134 3.2 11.3 0.00 0.00 0.00 74 1016.9
20260504081550 18 0 0.0 4.8 0.00 0.03 0.00 92 1015.7